Location: Newark
(44.4156°N, 12.1972°E)
Time: 00:27:58
(UTC+00:00)

STARLINK-1078 - Pass Details

Date: 30 January 2020
Orbit: 348 x 351 km, 53.0° (Epoch: 17 February)

Event Time Altitude Azimuth Distance (km) Brightness Sun altitude
Rises 18:00:40 0° 303° (WNW) 2,184 7.5 -18.6°
Reaches altitude 10° 18:02:41 10° 302° (WNW) 1,338 6.3 -19.0°
Enters shadow 18:05:29 75° 269° (W) 375 2.8 -19.5°
